This is the latest recevied weather packets stored in our database for station/object EB2EMZ-15. If no packets are shown the sender has not sent any weather packets the latest 10 day(s).
| Time | Temp. | Humidity | Pressure | Rain* | Wind** | Luminosity | Snow |
|---|---|---|---|---|---|---|---|
| 1777628118 | 34.44° C | 39% | 997.9 hPa | 0 mm | - | - | - |
| 1777627821 | 33.89° C | 40% | 998.1 hPa | 0 mm | - | - | - |
| 1777627517 | 33.33° C | 41% | 998.1 hPa | 0 mm | - | - | - |
| 1777627220 | 32.22° C | 43% | 998.2 hPa | 0 mm | - | - | - |
| 1777626917 | 31.67° C | 44% | 998.2 hPa | 0 mm | - | - | - |
| 1777626620 | 30.56° C | 46% | 998.4 hPa | 0 mm | - | - | - |
| 1777626318 | 30° C | 48% | 998.4 hPa | 0 mm | - | - | - |
| 1777626018 | 29.44° C | 50% | 998.4 hPa | 0 mm | - | - | - |
| 1777625718 | 28.33° C | 52% | 998.2 hPa | 0 mm | - | - | - |
| 1777625421 | 27.78° C | 53% | 998.2 hPa | 0 mm | - | - | - |
| 1777625117 | 27.22° C | 55% | 998.3 hPa | 0 mm | - | - | - |
| 1777624821 | 26.11° C | 57% | 998.3 hPa | 0 mm | - | - | - |
| 1777624518 | 25.56° C | 59% | 998.4 hPa | 0 mm | - | - | - |
| 1777624220 | 25° C | 60% | 998.5 hPa | 0 mm | - | - | - |
| 1777623917 | 25° C | 62% | 998.5 hPa | 0 mm | - | - | - |
| 1777623620 | 23.89° C | 64% | 998.5 hPa | 0 mm | - | - | - |
| 1777623317 | 23.33° C | 67% | 998.6 hPa | 0 mm | - | - | - |
| 1777623020 | 22.78° C | 68% | 998.6 hPa | 0 mm | - | - | - |
| 1777622718 | 22.22° C | 69% | 998.7 hPa | 0 mm | - | - | - |
| 1777622417 | 21.67° C | 70% | 998.6 hPa | 0 mm | - | - | - |
| 1777622118 | 21.67° C | 71% | 998.7 hPa | 0 mm | - | - | - |
| 1777621820 | 21.11° C | 73% | 998.8 hPa | 0 mm | - | - | - |
| 1777621518 | 20° C | 75% | 998.7 hPa | 0 mm | - | - | - |
| 1777621219 | 19.44° C | 76% | 998.6 hPa | 0 mm | - | - | - |
| 1777620918 | 18.89° C | 77% | 998.8 hPa | 0 mm | - | - | - |
* Rain latest hour (hover to see other rain measurements)
** Current wind speed in m/s (hover to see current wind gust speed)